Weather in Fjardabyggd

Iceland     65°08′48″N   13°41′36″W
temp.,
°C
wind,
m/s
gust,
m/s
humid.,
%
clouds,
%
prec.,
mm/h
press.,
hPa
HPBL,
m
5 august, thu
thu500:00+9se119471 0.0 100485
03:00+9se119686 0.0 100496
06:00+9ne119695 0.0 1004125
09:00+9ne229698 0.0 1005234
12:00+9ene119798 0.1 1005241
15:00+10ne229382 0.2 1005249
18:00+10ene229369 0.3 1005280
21:00+9ne229592 0.1 1006172
6 august, fri
fri600:00+9n119480 0.1 100646
03:00+7n119610 0.0 100613
06:00+8ne119670 0.0 100674
09:00+10e118315 0.0 1006299
12:00+11ese228072 0.1 1006577
15:00+12se227532 0.1 1006604
18:00+12se327514 0.1 1006437
21:00+10sse238614 0.0 100759
7 august, sat
sat700:00+9s22875 0.0 100718
03:00+8sse128929 0.0 100713
06:00+9e119089 0.0 100653
09:00+11e228478 0.0 1006245
12:00+10ene2296100 0.1 1006180
15:00+9ene1298100 2.6 1006113
18:00+9ese1299100 8.0 1006113
21:00+10ese229594 0.6 100778
8 august, sun
sun800:00+9e1194100 0.6 100715
03:00+9ene119145 0.0 100623
06:00+10ne118486 0.0 100623
09:00+12ne227222 0.0 1006251
12:00+13nne347090 0.0 1004514
15:00+13nne4466100 0.0 1003471
18:00+12nne4471100 0.0 1001258
21:00+10nne3484100 0.0 100091
9 august, mon
mon900:00+9n338598 0.0 99950
03:00+9n339168 0.0 99844
06:00+9n229388 0.0 998104
09:00+9nne2288100 0.1 998420
12:00+10nne228699 0.1 999328
15:00+10ne2285100 0.0 999288
18:00+10e118877 0.0 1000334
21:00+9sse119574 0.0 1000165